VBV119 LEVC-LFBO

Flight info

Callsign VBV119
Flight time 0h 46m
Altitude 32000
Route SOPET N608 CASIM DCT MATEX Z475 OSLAP Y90 USKAR N863 GIROM A29 ASPET
Aircraft B77W/H-DE1E2E3FGHIJ2J3J4J5LM1RWXY/LB1D1

Departure

Time 2026-05-06 17:40
Airport Valencia Airport (LEVC)

Arrival

Time 2026-05-06 18:26
Airport Toulouse-Blagnac Airport (LFBO)
Time Latitude Longitude Altitude Speed Heading
2026-05-06 17:12 39.48984 -0.47576 207 ft 0 kts 206°
2026-05-06 17:32 39.48997 -0.47567 220 ft 3 kts 206°
2026-05-06 17:33 39.49015 -0.47556 218 ft 3 kts 206°
2026-05-06 17:33 39.49032 -0.47545 218 ft 3 kts 206°
2026-05-06 17:33 39.49050 -0.47534 219 ft 3 kts 206°
2026-05-06 17:33 39.49062 -0.47526 217 ft 0 kts 206°
2026-05-06 17:36 39.49057 -0.47610 212 ft 14 kts 275°
2026-05-06 17:36 39.49066 -0.47734 218 ft 14 kts 277°
2026-05-06 17:36 39.49095 -0.47858 220 ft 15 kts 292°
2026-05-06 17:36 39.49135 -0.47979 221 ft 15 kts 298°
2026-05-06 17:37 39.49159 -0.48109 219 ft 16 kts 256°
2026-05-06 17:37 39.49169 -0.48253 223 ft 20 kts 293°
2026-05-06 17:37 39.49251 -0.48470 230 ft 28 kts 296°
2026-05-06 17:37 39.49334 -0.48695 228 ft 28 kts 296°
2026-05-06 17:38 39.49418 -0.48917 235 ft 28 kts 296°
2026-05-06 17:38 39.49504 -0.49141 238 ft 28 kts 296°
2026-05-06 17:38 39.49589 -0.49365 238 ft 28 kts 296°
2026-05-06 17:38 39.49674 -0.49590 245 ft 28 kts 296°
2026-05-06 17:39 39.49760 -0.49813 251 ft 23 kts 296°
2026-05-06 17:39 39.49815 -0.49961 256 ft 18 kts 290°
2026-05-06 17:39 39.49749 -0.50069 260 ft 18 kts 180°
2026-05-06 17:39 39.49639 -0.49999 257 ft 19 kts 126°
2026-05-06 17:40 39.49500 -0.49637 243 ft 98 kts 116°
2026-05-06 17:40 39.49020 -0.48392 515 ft 191 kts 115°
2026-05-06 17:40 39.48359 -0.46780 1906 ft 210 kts 118°
2026-05-06 17:40 39.47647 -0.45035 3143 ft 230 kts 118°
2026-05-06 17:41 39.46808 -0.43180 3830 ft 246 kts 134°
2026-05-06 17:41 39.45372 -0.41998 4879 ft 247 kts 155°
2026-05-06 17:41 39.43980 -0.40639 5630 ft 261 kts 124°
2026-05-06 17:41 39.43122 -0.38521 6410 ft 273 kts 117°
2026-05-06 17:42 39.42176 -0.36327 7317 ft 283 kts 121°
2026-05-06 17:42 39.41449 -0.33950 8131 ft 292 kts 95°
2026-05-06 17:42 39.41698 -0.31359 9189 ft 291 kts 73°
2026-05-06 17:42 39.42251 -0.28825 10114 ft 294 kts 68°
2026-05-06 17:43 39.43373 -0.26618 10669 ft 310 kts 39°
2026-05-06 17:43 39.45324 -0.25235 10932 ft 336 kts 12°
2026-05-06 17:43 39.47701 -0.24682 11227 ft 359 kts
2026-05-06 17:43 39.50217 -0.24211 12079 ft 371 kts
2026-05-06 17:44 39.52797 -0.23727 13103 ft 378 kts
2026-05-06 17:44 39.55420 -0.23222 14167 ft 384 kts
2026-05-06 17:44 39.58076 -0.22693 15153 ft 389 kts
2026-05-06 17:44 39.60775 -0.22145 16107 ft 396 kts
2026-05-06 17:45 39.63524 -0.21582 17036 ft 402 kts
2026-05-06 17:45 39.66266 -0.20641 17832 ft 417 kts 18°
2026-05-06 17:45 39.68858 -0.18857 18658 ft 429 kts 31°
2026-05-06 17:45 39.71160 -0.16334 19526 ft 436 kts 42°
2026-05-06 17:46 39.73301 -0.13518 20373 ft 442 kts 43°
2026-05-06 17:46 39.75467 -0.10640 21161 ft 448 kts 43°
2026-05-06 17:46 39.76933 -0.08731 21675 ft 452 kts 42°
2026-05-06 17:46 39.79182 -0.05853 22459 ft 458 kts 42°
2026-05-06 17:47 39.81557 -0.03073 23192 ft 462 kts 34°
2026-05-06 17:47 39.84259 -0.00790 23852 ft 464 kts 25°
2026-05-06 17:47 39.87188 0.01000 24458 ft 466 kts 17°
2026-05-06 17:47 39.90286 0.02259 25066 ft 468 kts 11°
2026-05-06 17:48 39.93449 0.03384 25648 ft 474 kts 11°
2026-05-06 17:48 39.96656 0.04505 26225 ft 480 kts 11°
2026-05-06 17:48 39.99893 0.05654 26801 ft 486 kts 11°
2026-05-06 17:48 40.03171 0.06844 27355 ft 491 kts 11°
2026-05-06 17:49 40.06474 0.08065 27904 ft 497 kts 11°
2026-05-06 17:49 40.09819 0.09315 28511 ft 501 kts 11°
2026-05-06 17:49 40.13171 0.10574 29264 ft 501 kts 11°
2026-05-06 17:49 40.16522 0.11835 30021 ft 501 kts 10°
2026-05-06 17:50 40.19830 0.13076 30660 ft 500 kts 10°
2026-05-06 17:50 40.23168 0.14327 31414 ft 497 kts 10°
2026-05-06 17:50 40.26489 0.15567 31961 ft 497 kts
2026-05-06 17:50 40.29809 0.16804 31962 ft 496 kts
2026-05-06 17:51 40.36426 0.19272 31964 ft 494 kts
2026-05-06 17:51 40.43034 0.21743 31957 ft 494 kts
2026-05-06 17:52 40.49652 0.24226 31946 ft 494 kts
2026-05-06 17:52 40.56226 0.26951 31932 ft 499 kts 16°
2026-05-06 17:53 40.62502 0.31021 31938 ft 503 kts 23°
2026-05-06 17:53 40.68656 0.35395 31926 ft 502 kts 23°
2026-05-06 17:54 40.74797 0.39718 31929 ft 499 kts 23°
2026-05-06 17:54 40.80932 0.43988 31925 ft 498 kts 23°
2026-05-06 17:55 40.87048 0.48241 31924 ft 496 kts 23°
2026-05-06 17:55 40.93104 0.52465 31922 ft 495 kts 23°
2026-05-06 17:56 40.99187 0.56721 31900 ft 494 kts 23°
2026-05-06 17:56 41.05261 0.60978 31900 ft 494 kts 23°
2026-05-06 17:57 41.11332 0.65226 31925 ft 492 kts 21°
2026-05-06 17:57 41.17652 0.68509 31907 ft 484 kts 11°
2026-05-06 17:58 41.24125 0.70966 31912 ft 484 kts 10°
2026-05-06 17:58 41.30612 0.73423 31916 ft 486 kts 11°
2026-05-06 17:59 41.37111 0.75941 31905 ft 487 kts 11°
2026-05-06 17:59 41.43610 0.78491 31899 ft 486 kts 11°
2026-05-06 18:00 41.50091 0.81041 31904 ft 485 kts 11°
2026-05-06 18:00 41.56567 0.83593 31900 ft 485 kts 11°
2026-05-06 18:01 41.63026 0.86140 31900 ft 484 kts 11°
2026-05-06 18:01 41.69488 0.88694 31902 ft 483 kts 11°
2026-05-06 18:02 41.75936 0.91248 31912 ft 483 kts 11°
2026-05-06 18:02 41.82381 0.93807 31921 ft 483 kts 11°
2026-05-06 18:03 41.88822 0.96369 31933 ft 483 kts 11°
2026-05-06 18:03 41.95258 0.98935 31936 ft 482 kts 11°
2026-05-06 18:04 42.01651 1.01492 31781 ft 475 kts 11°
2026-05-06 18:04 42.04764 1.02738 31341 ft 472 kts 11°
2026-05-06 18:04 42.07944 1.04011 30840 ft 469 kts 11°
2026-05-06 18:05 42.11028 1.05174 30311 ft 464 kts
2026-05-06 18:05 42.14179 1.05890 29756 ft 455 kts
2026-05-06 18:05 42.17308 1.06186 29160 ft 448 kts 355°
2026-05-06 18:05 42.20392 1.06063 28595 ft 439 kts 350°
2026-05-06 18:06 42.23412 1.05716 28088 ft 433 kts 349°
2026-05-06 18:06 42.26398 1.05347 27558 ft 429 kts 350°
2026-05-06 18:06 42.29359 1.04987 27021 ft 426 kts 350°
2026-05-06 18:06 42.32294 1.04644 26516 ft 422 kts 351°
2026-05-06 18:07 42.35207 1.04316 26016 ft 417 kts 351°
2026-05-06 18:07 42.38087 1.03996 25509 ft 413 kts 352°
2026-05-06 18:07 42.40936 1.03686 25064 ft 408 kts 352°
2026-05-06 18:07 42.43755 1.03374 24566 ft 405 kts 353°
2026-05-06 18:08 42.46553 1.03067 24097 ft 402 kts 353°
2026-05-06 18:08 42.49328 1.02766 23633 ft 398 kts 353°
2026-05-06 18:08 42.52080 1.02469 23122 ft 395 kts 353°
2026-05-06 18:08 42.54805 1.02175 22592 ft 392 kts 353°
2026-05-06 18:09 42.57505 1.01882 22131 ft 387 kts 353°
2026-05-06 18:09 42.60183 1.01592 21657 ft 384 kts 353°
2026-05-06 18:09 42.62836 1.01304 21194 ft 380 kts 353°
2026-05-06 18:09 42.65421 1.01023 20746 ft 377 kts 353°
2026-05-06 18:10 42.68025 1.00738 20283 ft 374 kts 353°
2026-05-06 18:10 42.70611 1.00454 19850 ft 371 kts 353°
2026-05-06 18:10 42.73174 1.00173 19402 ft 369 kts 353°
2026-05-06 18:10 42.75729 0.99895 18946 ft 367 kts 353°
2026-05-06 18:11 42.78273 0.99624 18498 ft 365 kts 354°
2026-05-06 18:11 42.80805 0.99413 18038 ft 364 kts 354°
2026-05-06 18:11 42.83333 0.99233 17541 ft 363 kts 354°
2026-05-06 18:11 42.85847 0.99059 17067 ft 361 kts 354°
2026-05-06 18:12 42.88350 0.98879 16606 ft 359 kts 354°
2026-05-06 18:12 42.90835 0.98696 16151 ft 356 kts 354°
2026-05-06 18:12 42.93298 0.98510 15724 ft 353 kts 354°
2026-05-06 18:12 42.95745 0.98324 15305 ft 351 kts 354°
2026-05-06 18:13 42.98176 0.98152 14849 ft 347 kts 356°
2026-05-06 18:13 43.00554 0.98625 14414 ft 349 kts 17°
2026-05-06 18:13 43.02696 1.00164 14020 ft 347 kts 30°
2026-05-06 18:13 43.04717 1.01947 13597 ft 345 kts 30°
2026-05-06 18:14 43.06729 1.03745 13138 ft 344 kts 30°
2026-05-06 18:14 43.08730 1.05527 12709 ft 342 kts 30°
2026-05-06 18:14 43.10726 1.07293 12289 ft 341 kts 30°
2026-05-06 18:14 43.12714 1.09041 11877 ft 339 kts 30°
2026-05-06 18:15 43.14694 1.10777 11471 ft 337 kts 30°
2026-05-06 18:15 43.16664 1.12501 11060 ft 335 kts 30°
2026-05-06 18:15 43.18625 1.14217 10660 ft 334 kts 30°
2026-05-06 18:15 43.20570 1.15918 10435 ft 326 kts 30°
2026-05-06 18:16 43.22452 1.17565 10289 ft 317 kts 29°
2026-05-06 18:16 43.24280 1.19166 10148 ft 307 kts 29°
2026-05-06 18:16 43.26054 1.20720 10024 ft 298 kts 29°
2026-05-06 18:16 43.27797 1.22248 9685 ft 297 kts 29°
2026-05-06 18:17 43.29580 1.23577 9324 ft 286 kts 13°
2026-05-06 18:17 43.31508 1.24044 9032 ft 279 kts
2026-05-06 18:17 43.33429 1.24360 8698 ft 277 kts
2026-05-06 18:17 43.35307 1.24703 8405 ft 273 kts
2026-05-06 18:18 43.37059 1.25681 8062 ft 277 kts 35°
2026-05-06 18:18 43.38258 1.27747 7720 ft 283 kts 64°
2026-05-06 18:18 43.38692 1.30359 7419 ft 280 kts 84°
2026-05-06 18:18 43.38820 1.33050 7001 ft 285 kts 85°
2026-05-06 18:19 43.38939 1.35771 6596 ft 285 kts 85°
2026-05-06 18:19 43.39067 1.38499 6208 ft 285 kts 85°
2026-05-06 18:19 43.39200 1.41215 5802 ft 282 kts 84°
2026-05-06 18:19 43.39332 1.43866 5419 ft 275 kts 85°
2026-05-06 18:20 43.39716 1.46379 5048 ft 266 kts 60°
2026-05-06 18:20 43.40833 1.48282 4824 ft 251 kts 34°
2026-05-06 18:20 43.42289 1.49507 4571 ft 242 kts 23°
2026-05-06 18:20 43.43761 1.50580 4305 ft 235 kts 22°
2026-05-06 18:21 43.45163 1.51606 4047 ft 221 kts 21°
2026-05-06 18:21 43.46568 1.52085 3817 ft 199 kts 348°
2026-05-06 18:21 43.47762 1.51446 3644 ft 175 kts 324°
2026-05-06 18:21 43.48793 1.50617 3485 ft 168 kts 324°
2026-05-06 18:22 43.49762 1.49767 3323 ft 163 kts 321°
2026-05-06 18:22 43.50697 1.48849 3189 ft 166 kts 320°
2026-05-06 18:22 43.51600 1.47929 3060 ft 157 kts 319°
2026-05-06 18:22 43.52439 1.47059 2838 ft 143 kts 318°
2026-05-06 18:23 43.53192 1.46278 2664 ft 127 kts 317°
2026-05-06 18:23 43.53888 1.45554 2537 ft 128 kts 317°
2026-05-06 18:23 43.54593 1.44819 2348 ft 128 kts 317°
2026-05-06 18:23 43.55302 1.44083 2177 ft 127 kts 317°
2026-05-06 18:24 43.56007 1.43347 1986 ft 126 kts 317°
2026-05-06 18:24 43.56725 1.42602 1830 ft 132 kts 318°
2026-05-06 18:24 43.57467 1.41828 1651 ft 135 kts 318°
2026-05-06 18:24 43.58211 1.41053 1451 ft 132 kts 319°
2026-05-06 18:25 43.58945 1.40289 1264 ft 133 kts 319°
2026-05-06 18:25 43.59706 1.39497 1085 ft 142 kts 321°
2026-05-06 18:25 43.60482 1.38695 883 ft 135 kts 321°
2026-05-06 18:25 43.61211 1.37937 689 ft 127 kts 321°
2026-05-06 18:26 43.61906 1.37210 551 ft 127 kts 322°
2026-05-06 18:26 43.62567 1.36513 509 ft 108 kts 323°
2026-05-06 18:26 43.63041 1.36010 504 ft 63 kts 323°
2026-05-06 18:26 43.63301 1.35736 505 ft 41 kts 322°
2026-05-06 18:27 43.63508 1.35522 504 ft 30 kts 306°
2026-05-06 18:27 43.63501 1.35366 504 ft 0 kts 236°
2026-05-06 18:27 43.63501 1.35365 504 ft 0 kts 236°
2026-05-06 18:27 43.63499 1.35361 504 ft 2 kts 236°
2026-05-06 18:28 43.63483 1.35257 504 ft 19 kts 280°
2026-05-06 18:28 43.63563 1.35154 504 ft 17 kts 326°
2026-05-06 18:28 43.63643 1.35045 504 ft 17 kts 284°
2026-05-06 18:28 43.63618 1.34956 504 ft 4 kts 194°
2026-05-06 18:29 43.63560 1.35000 504 ft 15 kts 144°
2026-05-06 18:29 43.63472 1.35032 504 ft 12 kts 209°
2026-05-06 18:29 43.63449 1.34998 504 ft 0 kts 231°